Weather History for KHVN - July, 2013

Change the Weather History Date:

Sunday, July 21, 2013

  Actual Average Record
Temperature  
Mean Temperature 78 °F -  
Max Temperature 86 °F 78 °F 100 °F (1977)
Min Temperature 72 °F 63 °F 56 °F (1974)
Cooling Degree Days 13    
Growing Degree Days 28 (Base 50)    
Moisture  
Dew Point 65 °F    
Average Humidity 65    
Maximum Humidity 84    
Minimum Humidity 41    
Precipitation  
Precipitation 0.01 in - - ()
Sea Level Pressure  
Sea Level Pressure 29.93 in    
Wind  
Wind Speed 3 mph (East)    
Max Wind Speed 10 mph    
Max Gust Speed -    
Visibility 10 miles    
Events      
Averages and records for this station are not official NWS values.
T = Trace of Precipitation, MM = Missing Value Source: NWS Daily Summary

Daily Weather History Graph

Daily Weather History Graph

Search for Another Location

Airport or City:

Trip Planner

Search our weather history database for the weather conditions in past years. The results will help you decide how hot, cold, wet, or windy it might be!

Date:

Astronomy

Jul. 21, 2013 Rise Set
Actual Time 5:36 AM EDT 8:18 PM EDT
Civil Twilight 5:04 AM EDT 8:50 PM EDT
Nautical Twilight 4:24 AM EDT 9:30 PM EDT
Astronomical Twilight 3:38 AM EDT 10:16 PM EDT
Moon 7:13 PM EDT (7/21) 4:19 AM EDT (7/21)
Length of Visible Light 15h 46m
Length of Day
14h 41m
Waxing Gibbous, 98% of the Moon is Illuminated
Jul 21
Waxing Gibbous
Jul 22
Full
Jul 29
Last Quarter
Aug 6
New
Aug 14
First Quarter

Hourly Weather History & Observations

Time (EDT) Temp. Heat Index Dew Point Humidity Pressure Visibility Wind Dir Wind Speed Gust Speed Precip Events Conditions
12:53 AM 79.0 °F - 66.9 °F 66% 29.85 in 10.0 mi Calm Calm - N/A   Mostly Cloudy
1:53 AM 75.9 °F - 69.1 °F 79% 29.86 in 10.0 mi Calm Calm - N/A   Mostly Cloudy
2:53 AM 77.0 °F - 69.1 °F 76% 29.86 in 10.0 mi NE 3.5 mph - N/A   Mostly Cloudy
3:53 AM 73.9 °F - 66.0 °F 76% 29.86 in 10.0 mi North 3.5 mph - N/A   Overcast
4:53 AM 73.9 °F - 64.9 °F 73% 29.87 in 10.0 mi Calm Calm - N/A   Overcast
5:53 AM 72.0 °F - 66.0 °F 81% 29.90 in 10.0 mi Calm Calm - N/A   Overcast
6:53 AM 73.9 °F - 66.0 °F 76% 29.91 in 10.0 mi Calm Calm - 0.01 in   Mostly Cloudy
7:53 AM 75.0 °F - 64.9 °F 71% 29.92 in 10.0 mi NNE 4.6 mph - N/A   Overcast
8:53 AM 79.0 °F - 64.0 °F 60% 29.93 in 10.0 mi NNE 6.9 mph - N/A   Mostly Cloudy
9:53 AM 80.1 °F 81.7 °F 64.0 °F 58% 29.94 in 10.0 mi East 3.5 mph - N/A   Overcast
10:53 AM 78.1 °F - 64.9 °F 64% 29.95 in 10.0 mi SE 6.9 mph - N/A   Mostly Cloudy
11:53 AM 82.0 °F 83.8 °F 64.9 °F 56% 29.95 in 10.0 mi East 5.8 mph - N/A   Partly Cloudy
12:53 PM 82.9 °F 84.4 °F 64.0 °F 53% 29.96 in 10.0 mi SE 9.2 mph - N/A   Mostly Cloudy
1:53 PM 84.0 °F 84.5 °F 62.1 °F 47% 29.96 in 10.0 mi SE 9.2 mph - N/A   Mostly Cloudy
2:53 PM 84.9 °F 84.4 °F 59.0 °F 41% 29.95 in 10.0 mi ESE 10.4 mph - N/A   Mostly Cloudy
3:53 PM 82.9 °F 83.2 °F 60.1 °F 46% 29.95 in 10.0 mi SE 6.9 mph - N/A   Mostly Cloudy
4:53 PM 82.9 °F 83.7 °F 62.1 °F 49% 29.94 in 10.0 mi Variable 6.9 mph - N/A   Mostly Cloudy
5:53 PM 82.0 °F 83.0 °F 62.1 °F 51% 29.94 in 10.0 mi ESE 8.1 mph - N/A   Mostly Cloudy
6:53 PM 80.1 °F 82.1 °F 66.0 °F 62% 29.94 in 10.0 mi East 5.8 mph - N/A   Scattered Clouds
7:53 PM 79.0 °F - 66.9 °F 66% 29.94 in 10.0 mi ESE 5.8 mph - N/A   Mostly Cloudy
8:53 PM 77.0 °F - 68.0 °F 74% 29.95 in 10.0 mi East 3.5 mph - N/A   Mostly Cloudy
9:53 PM 75.0 °F - 66.9 °F 76% 29.98 in 10.0 mi East 3.5 mph - N/A   Clear
10:53 PM 73.9 °F - 68.0 °F 82% 29.98 in 10.0 mi Calm Calm - N/A   Clear
11:53 PM 73.0 °F - 68.0 °F 84% 29.97 in 10.0 mi NE 3.5 mph - N/A   Clear